Time,TemperatureF,DewpointF,PressureIn,WindDirection,WindDirectionDegrees,WindSpeedMPH,WindSpeedGustMPH,Humidity,HourlyPrecipIn,Conditions,Clouds,dailyrainin,SoftwareType,DateUTC
2013-10-05 00:00:00,58.3,30.1,30.18,SE,135,0.0,2.0,34,0.00,,,0.00,VWS V14.01,2013-10-05 07:00:00,
2013-10-05 00:30:00,57.5,30.1,30.18,ESE,112,0.0,1.0,35,0.00,,,0.00,VWS V14.01,2013-10-05 07:30:00,
2013-10-05 01:00:00,58.2,30.0,30.19,ESE,112,0.0,1.0,34,0.00,,,0.00,VWS V14.01,2013-10-05 08:00:00,
2013-10-05 01:30:00,57.6,29.5,30.20,SE,135,0.0,1.0,34,0.00,,,0.00,VWS V14.01,2013-10-05 08:30:00,
2013-10-05 02:00:00,62.9,25.6,30.20,East,90,0.0,4.0,24,0.00,,,0.00,VWS V14.01,2013-10-05 09:00:00,
2013-10-05 02:47:00,66.6,24.3,30.21,West,262,1.0,1.0,20,0.00,,,0.00,VWS V14.01,2013-10-05 09:47:00,
2013-10-05 02:52:00,66.4,22.9,30.21,NNW,341,0.0,3.0,19,0.00,,,0.00,VWS V14.01,2013-10-05 09:52:00,
2013-10-05 02:57:00,66.3,24.1,30.21,SW,228,0.0,3.0,20,0.00,,,0.00,VWS V14.01,2013-10-05 09:57:00,
2013-10-05 03:00:00,66.0,23.8,30.21,SSW,204,1.0,3.0,20,0.00,,,0.00,VWS V14.01,2013-10-05 10:00:00,
2013-10-05 03:02:00,66.1,23.9,30.21,WSW,254,1.0,3.0,20,0.00,,,0.00,VWS V14.01,2013-10-05 10:02:00,
2013-10-05 03:07:00,65.8,23.6,30.21,ESE,118,0.0,3.0,20,0.00,,,0.00,VWS V14.01,2013-10-05 10:07:00,
2013-10-05 03:12:00,65.9,23.7,30.21,SE,139,1.0,7.0,20,0.00,,,0.00,VWS V14.01,2013-10-05 10:12:00,
2013-10-05 03:17:00,65.6,23.5,30.21,SSE,155,1.0,7.0,20,0.00,,,0.00,VWS V14.01,2013-10-05 10:17:00,
2013-10-05 03:22:00,65.5,24.6,30.21,ESE,121,2.0,7.0,21,0.00,,,0.00,VWS V14.01,2013-10-05 10:22:00,
2013-10-05 03:27:00,65.3,24.4,30.21,SW,236,1.0,7.0,21,0.00,,,0.00,VWS V14.01,2013-10-05 10:27:00,
2013-10-05 03:30:00,65.8,23.6,30.21,ESE,112,1.0,8.0,20,0.00,,,0.00,VWS V14.01,2013-10-05 10:30:00,
2013-10-05 04:00:00,64.5,24.8,30.21,SE,135,1.0,9.0,22,0.00,,,0.00,VWS V14.01,2013-10-05 11:00:00,
2013-10-05 04:30:00,63.4,26.0,30.22,ESE,112,1.0,4.0,24,0.00,,,0.00,VWS V14.01,2013-10-05 11:30:00,
2013-10-05 05:00:00,63.7,25.2,30.22,ESE,112,1.0,4.0,23,0.00,,,0.00,VWS V14.01,2013-10-05 12:00:00,
2013-10-05 05:30:00,61.1,26.9,30.23,ESE,112,0.0,5.0,27,0.00,,,0.00,VWS V14.01,2013-10-05 12:30:00,
2013-10-05 06:00:00,58.6,26.5,30.23,ESE,112,0.0,2.0,29,0.00,,,0.00,VWS V14.01,2013-10-05 13:00:00,
2013-10-05 06:30:00,55.9,28.0,30.24,SE,135,0.0,1.0,34,0.00,,,0.00,VWS V14.01,2013-10-05 13:30:00,
2013-10-05 07:00:00,54.6,28.9,30.24,SE,135,0.0,1.0,37,0.00,,,0.00,VWS V14.01,2013-10-05 14:00:00,
2013-10-05 07:30:00,54.7,28.3,30.26,South,180,0.0,2.0,36,0.00,,,0.00,VWS V14.01,2013-10-05 14:30:00,
2013-10-05 08:00:00,56.7,28.7,30.26,ESE,112,0.0,1.0,34,0.00,,,0.00,VWS V14.01,2013-10-05 15:00:00,
2013-10-05 08:30:00,60.5,28.9,30.27,SE,135,0.0,3.0,30,0.00,,,0.00,VWS V14.01,2013-10-05 15:30:00,
2013-10-05 09:00:00,64.8,27.2,30.28,ESE,112,1.0,10.0,24,0.00,,,0.00,VWS V14.01,2013-10-05 16:00:00,
2013-10-05 09:30:00,70.8,29.0,30.29,West,270,0.0,3.0,21,0.00,,,0.00,VWS V14.01,2013-10-05 16:30:00,
2013-10-05 10:07:00,70.8,29.0,30.29,West,270,0.0,3.0,21,0.00,,,0.00,VWS V14.01,2013-10-05 17:07:00,
2013-10-05 10:12:00,72.3,30.2,30.29,East,99,1.0,2.0,21,0.00,,,0.00,VWS V14.01,2013-10-05 17:12:00,
2013-10-05 10:17:00,72.4,30.3,30.29,East,96,0.0,3.0,21,0.00,,,0.00,VWS V14.01,2013-10-05 17:17:00,
2013-10-05 10:22:00,73.1,29.7,30.29,SSE,154,0.0,3.0,20,0.00,,,0.00,VWS V14.01,2013-10-05 17:22:00,
2013-10-05 10:27:00,73.5,30.0,30.29,West,259,1.0,3.0,20,0.00,,,0.00,VWS V14.01,2013-10-05 17:27:00,
2013-10-05 10:30:00,73.7,28.9,30.29,ESE,119,1.0,5.0,19,0.00,,,0.00,VWS V14.01,2013-10-05 17:30:00,
2013-10-05 10:32:00,73.5,31.2,30.29,ESE,120,0.0,5.0,21,0.00,,,0.00,VWS V14.01,2013-10-05 17:32:00,
2013-10-05 10:37:00,74.2,30.6,30.29,ENE,70,1.0,1.0,20,0.00,,,0.00,VWS V14.01,2013-10-05 17:37:00,
2013-10-05 10:42:00,74.2,26.6,30.29,NNW,333,1.0,5.0,17,0.00,,,0.00,VWS V14.01,2013-10-05 17:42:00,
2013-10-05 10:47:00,74.1,29.2,30.29,WNW,287,0.0,5.0,19,0.00,,,0.00,VWS V14.01,2013-10-05 17:47:00,
2013-10-05 10:52:00,74.9,29.9,30.28,North,1,1.0,5.0,19,0.00,,,0.00,VWS V14.01,2013-10-05 17:52:00,
2013-10-05 10:57:00,75.3,30.2,30.28,SW,217,0.0,5.0,19,0.00,,,0.00,VWS V14.01,2013-10-05 17:57:00,
2013-10-05 11:00:00,75.8,30.6,30.28,SW,226,1.0,5.0,19,0.00,,,0.00,VWS V14.01,2013-10-05 18:00:00,
2013-10-05 11:02:00,75.7,30.6,30.28,East,96,1.0,5.0,19,0.00,,,0.00,VWS V14.01,2013-10-05 18:02:00,
2013-10-05 11:07:00,76.0,28.1,30.28,SE,125,0.0,3.0,17,0.00,,,0.00,VWS V14.01,2013-10-05 18:07:00,
2013-10-05 11:12:00,76.3,29.7,30.28,ESE,123,2.0,3.0,18,0.00,,,0.00,VWS V14.01,2013-10-05 18:12:00,
2013-10-05 11:17:00,76.3,29.7,30.28,SE,127,2.0,3.0,18,0.00,,,0.00,VWS V14.01,2013-10-05 18:17:00,
2013-10-05 11:22:00,76.3,31.0,30.28,SE,132,0.0,3.0,19,0.00,,,0.00,VWS V14.01,2013-10-05 18:22:00,
2013-10-05 11:27:00,76.7,28.6,30.28,NNE,19,2.0,3.0,17,0.00,,,0.00,VWS V14.01,2013-10-05 18:27:00,
2013-10-05 11:30:00,76.6,30.0,30.28,ESE,110,2.0,3.0,18,0.00,,,0.00,VWS V14.01,2013-10-05 18:30:00,
2013-10-05 11:32:00,76.6,28.6,30.28,East,84,3.0,3.0,17,0.00,,,0.00,VWS V14.01,2013-10-05 18:32:00,
2013-10-05 11:37:00,76.5,31.2,30.28,NNE,30,0.0,4.0,19,0.00,,,0.00,VWS V14.01,2013-10-05 18:37:00,
2013-10-05 11:42:00,76.9,28.8,30.27,NNW,341,0.0,4.0,17,0.00,,,0.00,VWS V14.01,2013-10-05 18:42:00,
2013-10-05 11:47:00,77.2,30.5,30.27,West,281,3.0,5.0,18,0.00,,,0.00,VWS V14.01,2013-10-05 18:47:00,
2013-10-05 11:52:00,77.1,30.4,30.27,West,276,1.0,5.0,18,0.00,,,0.00,VWS V14.01,2013-10-05 18:52:00,
2013-10-05 11:57:00,77.5,32.0,30.27,WSW,249,0.0,5.0,19,0.00,,,0.00,VWS V14.01,2013-10-05 18:57:00,
2013-10-05 12:00:00,77.2,27.6,30.27,WNW,290,2.0,6.0,16,0.00,,,0.00,VWS V14.01,2013-10-05 19:00:00,
2013-10-05 12:02:00,77.4,29.2,30.27,ENE,58,1.0,5.0,17,0.00,,,0.00,VWS V14.01,2013-10-05 19:02:00,
2013-10-05 12:07:00,77.0,30.3,30.27,NE,53,4.0,7.0,18,0.00,,,0.00,VWS V14.01,2013-10-05 19:07:00,
2013-10-05 12:12:00,77.0,28.9,30.27,NNW,347,1.0,9.0,17,0.00,,,0.00,VWS V14.01,2013-10-05 19:12:00,
2013-10-05 12:17:00,76.7,28.6,30.27,WNW,295,3.0,9.0,17,0.00,,,0.00,VWS V14.01,2013-10-05 19:17:00,
2013-10-05 12:22:00,76.8,27.2,30.27,SW,232,1.0,9.0,16,0.00,,,0.00,VWS V14.01,2013-10-05 19:22:00,
2013-10-05 12:27:00,77.2,29.0,30.27,North,357,3.0,9.0,17,0.00,,,0.00,VWS V14.01,2013-10-05 19:27:00,
2013-10-05 12:30:00,77.4,33.2,30.26,North,359,1.0,9.0,20,0.00,,,0.00,VWS V14.01,2013-10-05 19:30:00,
2013-10-05 12:32:00,77.3,27.7,30.26,NNW,340,1.0,9.0,16,0.00,,,0.00,VWS V14.01,2013-10-05 19:32:00,
2013-10-05 12:37:00,77.8,33.6,30.26,NW,304,0.0,2.0,20,0.00,,,0.00,VWS V14.01,2013-10-05 19:37:00,
2013-10-05 12:42:00,78.0,31.1,30.26,WSW,257,0.0,6.0,18,0.00,,,0.00,VWS V14.01,2013-10-05 19:42:00,
2013-10-05 12:47:00,78.7,30.3,30.26,East,98,1.0,6.0,17,0.00,,,0.00,VWS V14.01,2013-10-05 19:47:00,
2013-10-05 12:52:00,78.9,30.4,30.26,SSE,153,3.0,6.0,17,0.00,,,0.00,VWS V14.01,2013-10-05 19:52:00,
2013-10-05 12:57:00,78.6,30.2,30.25,NE,34,1.0,6.0,17,0.00,,,0.00,VWS V14.01,2013-10-05 19:57:00,
2013-10-05 13:00:00,78.4,30.0,30.25,NNW,336,3.0,6.0,17,0.00,,,0.00,VWS V14.01,2013-10-05 20:00:00,
2013-10-05 13:02:00,78.4,30.0,30.25,NNW,345,2.0,6.0,17,0.00,,,0.00,VWS V14.01,2013-10-05 20:02:00,
2013-10-05 13:07:00,78.5,35.4,30.25,North,5,2.0,8.0,21,0.00,,,0.00,VWS V14.01,2013-10-05 20:07:00,
2013-10-05 13:12:00,78.7,30.3,30.25,North,9,1.0,8.0,17,0.00,,,0.00,VWS V14.01,2013-10-05 20:12:00,
2013-10-05 13:17:00,78.7,30.3,30.25,NNE,13,4.0,8.0,17,0.00,,,0.00,VWS V14.01,2013-10-05 20:17:00,
2013-10-05 13:22:00,78.9,31.8,30.24,South,189,1.0,8.0,18,0.00,,,0.00,VWS V14.01,2013-10-05 20:22:00,
2013-10-05 13:27:00,79.5,33.7,30.24,ENE,75,1.0,8.0,19,0.00,,,0.00,VWS V14.01,2013-10-05 20:27:00,
2013-10-05 13:30:00,79.9,32.7,30.24,North,353,1.0,8.0,18,0.00,,,0.00,VWS V14.01,2013-10-05 20:30:00,
2013-10-05 13:32:00,79.8,32.6,30.24,NNE,21,0.0,8.0,18,0.00,,,0.00,VWS V14.01,2013-10-05 20:32:00,
2013-10-05 13:37:00,80.3,35.6,30.24,WNW,298,1.0,3.0,20,0.00,,,0.00,VWS V14.01,2013-10-05 20:37:00,
2013-10-05 13:42:00,80.6,33.2,30.24,ENE,63,0.0,4.0,18,0.00,,,0.00,VWS V14.01,2013-10-05 20:42:00,
2013-10-05 13:47:00,80.5,33.1,30.23,NNW,340,3.0,4.0,18,0.00,,,0.00,VWS V14.01,2013-10-05 20:47:00,
2013-10-05 13:52:00,80.5,31.7,30.23,NE,51,1.0,4.0,17,0.00,,,0.00,VWS V14.01,2013-10-05 20:52:00,
2013-10-05 13:57:00,80.1,31.4,30.23,NNE,14,2.0,10.0,17,0.00,,,0.00,VWS V14.01,2013-10-05 20:57:00,
2013-10-05 14:00:00,80.2,31.5,30.23,NE,37,2.0,10.0,17,0.00,,,0.00,VWS V14.01,2013-10-05 21:00:00,
2013-10-05 14:02:00,80.2,31.5,30.23,SW,232,1.0,10.0,17,0.00,,,0.00,VWS V14.01,2013-10-05 21:02:00,
2013-10-05 14:07:00,80.3,34.3,30.22,NNW,345,1.0,3.0,19,0.00,,,0.00,VWS V14.01,2013-10-05 21:07:00,
2013-10-05 14:12:00,80.6,31.8,30.22,WNW,284,2.0,5.0,17,0.00,,,0.00,VWS V14.01,2013-10-05 21:12:00,
2013-10-05 14:17:00,80.6,31.8,30.22,NW,315,2.0,6.0,17,0.00,,,0.00,VWS V14.01,2013-10-05 21:17:00,
2013-10-05 14:22:00,80.7,31.9,30.22,SSE,153,0.0,6.0,17,0.00,,,0.00,VWS V14.01,2013-10-05 21:22:00,
2013-10-05 14:27:00,81.0,32.1,30.22,West,264,1.0,6.0,17,0.00,,,0.00,VWS V14.01,2013-10-05 21:27:00,
2013-10-05 14:30:00,81.3,30.9,30.22,NNE,27,2.0,6.0,16,0.00,,,0.00,VWS V14.01,2013-10-05 21:30:00,
2013-10-05 14:32:00,81.3,32.4,30.22,SW,228,0.0,6.0,17,0.00,,,0.00,VWS V14.01,2013-10-05 21:32:00,
2013-10-05 14:37:00,81.2,30.8,30.22,East,79,1.0,3.0,16,0.00,,,0.00,VWS V14.01,2013-10-05 21:37:00,
2013-10-05 14:42:00,81.3,30.9,30.21,NW,318,1.0,3.0,16,0.00,,,0.00,VWS V14.01,2013-10-05 21:42:00,
2013-10-05 14:47:00,81.5,35.3,30.22,North,9,3.0,3.0,19,0.00,,,0.00,VWS V14.01,2013-10-05 21:47:00,
2013-10-05 14:52:00,81.1,32.2,30.22,NNE,12,3.0,6.0,17,0.00,,,0.00,VWS V14.01,2013-10-05 21:52:00,
2013-10-05 14:57:00,81.2,29.2,30.21,SSW,210,1.0,6.0,15,0.00,,,0.00,VWS V14.01,2013-10-05 21:57:00,
2013-10-05 15:00:00,81.4,32.5,30.21,West,268,1.0,6.0,17,0.00,,,0.00,VWS V14.01,2013-10-05 22:00:00,
2013-10-05 15:02:00,81.3,33.8,30.21,WSW,252,1.0,6.0,18,0.00,,,0.00,VWS V14.01,2013-10-05 22:02:00,
2013-10-05 15:07:00,81.4,31.0,30.21,NNE,25,1.0,6.0,16,0.00,,,0.00,VWS V14.01,2013-10-05 22:07:00,
2013-10-05 15:12:00,81.2,30.8,30.21,SSE,156,0.0,6.0,16,0.00,,,0.00,VWS V14.01,2013-10-05 22:12:00,
2013-10-05 15:17:00,81.4,29.4,30.21,NNW,340,1.0,6.0,15,0.00,,,0.00,VWS V14.01,2013-10-05 22:17:00,
2013-10-05 15:22:00,81.2,30.8,30.21,South,191,2.0,6.0,16,0.00,,,0.00,VWS V14.01,2013-10-05 22:22:00,
2013-10-05 15:27:00,81.3,30.9,30.21,NE,51,1.0,6.0,16,0.00,,,0.00,VWS V14.01,2013-10-05 22:27:00,
2013-10-05 15:30:00,81.1,30.7,30.21,SE,144,0.0,6.0,16,0.00,,,0.00,VWS V14.01,2013-10-05 22:30:00,
2013-10-05 15:32:00,81.0,30.6,30.21,ENE,65,1.0,6.0,16,0.00,,,0.00,VWS V14.01,2013-10-05 22:32:00,
2013-10-05 15:37:00,81.1,29.1,30.20,ESE,120,0.0,4.0,15,0.00,,,0.00,VWS V14.01,2013-10-05 22:37:00,
2013-10-05 15:42:00,81.3,30.9,30.20,ENE,61,4.0,5.0,16,0.00,,,0.00,VWS V14.01,2013-10-05 22:42:00,
2013-10-05 15:47:00,81.1,30.7,30.20,SE,141,0.0,6.0,16,0.00,,,0.00,VWS V14.01,2013-10-05 22:47:00,
2013-10-05 15:52:00,81.4,31.0,30.20,NNE,13,1.0,6.0,16,0.00,,,0.00,VWS V14.01,2013-10-05 22:52:00,
2013-10-05 15:57:00,81.3,30.9,30.20,North,4,1.0,6.0,16,0.00,,,0.00,VWS V14.01,2013-10-05 22:57:00,
2013-10-05 16:00:00,81.3,32.4,30.20,SE,138,1.0,6.0,17,0.00,,,0.00,VWS V14.01,2013-10-05 23:00:00,
2013-10-05 16:02:00,81.1,32.2,30.20,East,91,0.0,6.0,17,0.00,,,0.00,VWS V14.01,2013-10-05 23:02:00,
2013-10-05 16:08:00,81.4,32.5,30.20,NE,52,2.0,2.0,17,0.00,,,0.00,VWS V14.01,2013-10-05 23:08:00,
2013-10-05 16:13:00,81.1,32.2,30.20,North,6,3.0,3.0,17,0.00,,,0.00,VWS V14.01,2013-10-05 23:13:00,
2013-10-05 16:18:00,81.2,32.3,30.20,NW,325,1.0,4.0,17,0.00,,,0.00,VWS V14.01,2013-10-05 23:18:00,
2013-10-05 16:23:00,81.0,30.6,30.20,North,351,0.0,4.0,16,0.00,,,0.00,VWS V14.01,2013-10-05 23:23:00,
2013-10-05 16:28:00,80.8,32.0,30.19,North,5,0.0,5.0,17,0.00,,,0.00,VWS V14.01,2013-10-05 23:28:00,
2013-10-05 16:30:00,80.8,32.0,30.19,West,273,0.0,5.0,17,0.00,,,0.00,VWS V14.01,2013-10-05 23:30:00,
2013-10-05 16:33:00,80.8,32.0,30.19,WNW,297,1.0,1.0,17,0.00,,,0.00,VWS V14.01,2013-10-05 23:33:00,
2013-10-05 16:38:00,80.8,30.5,30.19,NNE,19,1.0,3.0,16,0.00,,,0.00,VWS V14.01,2013-10-05 23:38:00,
2013-10-05 16:43:00,80.7,31.9,30.19,NNE,26,1.0,4.0,17,0.00,,,0.00,VWS V14.01,2013-10-05 23:43:00,
2013-10-05 16:48:00,80.5,31.7,30.19,NE,40,5.0,5.0,17,0.00,,,0.00,VWS V14.01,2013-10-05 23:48:00,
2013-10-05 16:53:00,80.4,33.1,30.19,SSW,197,0.0,5.0,18,0.00,,,0.00,VWS V14.01,2013-10-05 23:53:00,
2013-10-05 16:58:00,80.3,31.6,30.19,NNW,333,0.0,5.0,17,0.00,,,0.00,VWS V14.01,2013-10-05 23:58:00,
2013-10-05 17:00:00,80.1,32.8,30.19,NE,39,1.0,5.0,18,0.00,,,0.00,VWS V14.01,2013-10-06 00:00:00,
2013-10-05 17:03:00,80.1,32.8,30.19,NE,34,4.0,4.0,18,0.00,,,0.00,VWS V14.01,2013-10-06 00:03:00,
2013-10-05 17:08:00,79.8,32.6,30.19,NNE,30,1.0,4.0,18,0.00,,,0.00,VWS V14.01,2013-10-06 00:08:00,
2013-10-05 17:13:00,79.6,31.0,30.19,NNE,16,3.0,4.0,17,0.00,,,0.00,VWS V14.01,2013-10-06 00:13:00,
2013-10-05 17:18:00,79.5,32.3,30.18,North,357,2.0,4.0,18,0.00,,,0.00,VWS V14.01,2013-10-06 00:18:00,
2013-10-05 17:23:00,79.2,32.1,30.18,NE,34,2.0,4.0,18,0.00,,,0.00,VWS V14.01,2013-10-06 00:23:00,
2013-10-05 17:28:00,79.2,33.4,30.18,North,1,0.0,4.0,19,0.00,,,0.00,VWS V14.01,2013-10-06 00:28:00,
2013-10-05 17:30:00,79.0,31.9,30.18,ENE,65,1.0,5.0,18,0.00,,,0.00,VWS V14.01,2013-10-06 00:30:00,
2013-10-05 17:33:00,79.0,31.9,30.18,ENE,65,1.0,5.0,18,0.00,,,0.00,VWS V14.01,2013-10-06 00:33:00,
2013-10-05 17:38:00,78.8,31.8,30.18,NNW,345,2.0,5.0,18,0.00,,,0.00,VWS V14.01,2013-10-06 00:38:00,
2013-10-05 17:43:00,78.6,32.9,30.18,North,356,0.0,5.0,19,0.00,,,0.00,VWS V14.01,2013-10-06 00:43:00,
2013-10-05 17:48:00,78.4,32.8,30.18,NW,325,1.0,5.0,19,0.00,,,0.00,VWS V14.01,2013-10-06 00:48:00,
2013-10-05 17:53:00,78.2,32.6,30.18,NW,326,2.0,6.0,19,0.00,,,0.00,VWS V14.01,2013-10-06 00:53:00,
2013-10-05 17:58:00,77.9,32.4,30.18,NNW,346,2.0,6.0,19,0.00,,,0.00,VWS V14.01,2013-10-06 00:58:00,
2013-10-05 18:00:00,77.6,32.1,30.18,NNE,27,0.0,6.0,19,0.00,,,0.00,VWS V14.01,2013-10-06 01:00:00,
2013-10-05 18:03:00,77.6,32.1,30.18,NNE,27,0.0,6.0,19,0.00,,,0.00,VWS V14.01,2013-10-06 01:03:00,
2013-10-05 18:08:00,77.2,34.3,30.18,NNE,27,0.0,1.0,21,0.00,,,0.00,VWS V14.01,2013-10-06 01:08:00,
2013-10-05 18:13:00,76.6,33.8,30.18,SW,224,0.0,1.0,21,0.00,,,0.00,VWS V14.01,2013-10-06 01:13:00,
2013-10-05 18:18:00,76.0,34.5,30.18,NNE,29,0.0,2.0,22,0.00,,,0.00,VWS V14.01,2013-10-06 01:18:00,
2013-10-05 18:23:00,75.4,35.1,30.18,North,355,0.0,2.0,23,0.00,,,0.00,VWS V14.01,2013-10-06 01:23:00,
2013-10-05 18:28:00,74.6,35.5,30.18,North,356,0.0,2.0,24,0.00,,,0.00,VWS V14.01,2013-10-06 01:28:00,
2013-10-05 18:30:00,73.7,34.7,30.18,North,356,0.0,2.0,24,0.00,,,0.00,VWS V14.01,2013-10-06 01:30:00,
2013-10-05 18:33:00,73.7,34.7,30.18,North,356,0.0,2.0,24,0.00,,,0.00,VWS V14.01,2013-10-06 01:33:00,
2013-10-05 18:38:00,72.8,35.0,30.18,North,356,0.0,0.0,25,0.00,,,0.00,VWS V14.01,2013-10-06 01:38:00,
2013-10-05 18:43:00,71.8,37.0,30.18,North,356,0.0,0.0,28,0.00,,,0.00,VWS V14.01,2013-10-06 01:43:00,
2013-10-05 19:00:00,68.4,37.4,30.18,North,0,0.0,0.0,32,0.00,,,0.00,VWS V14.01,2013-10-06 02:00:00,
2013-10-05 19:30:00,65.3,35.5,30.18,North,0,0.0,0.0,33,0.00,,,0.00,VWS V14.01,2013-10-06 02:30:00,
2013-10-05 20:00:00,62.8,35.5,30.18,North,0,0.0,0.0,36,0.00,,,0.00,VWS V14.01,2013-10-06 03:00:00,
2013-10-05 20:30:00,61.0,35.2,30.18,North,0,0.0,0.0,38,0.00,,,0.00,VWS V14.01,2013-10-06 03:30:00,
2013-10-05 21:00:00,60.1,35.7,30.19,North,0,0.0,0.0,40,0.00,,,0.00,VWS V14.01,2013-10-06 04:00:00,
2013-10-05 21:30:00,58.0,35.1,30.19,North,0,0.0,0.0,42,0.00,,,0.00,VWS V14.01,2013-10-06 04:30:00,
2013-10-05 22:00:00,56.8,35.7,30.19,North,0,0.0,0.0,45,0.00,,,0.00,VWS V14.01,2013-10-06 05:00:00,
2013-10-05 22:30:00,55.1,35.2,30.19,North,0,0.0,0.0,47,0.00,,,0.00,VWS V14.01,2013-10-06 05:30:00,
2013-10-05 23:00:00,54.2,35.0,30.19,North,0,0.0,0.0,48,0.00,,,0.00,VWS V14.01,2013-10-06 06:00:00,
2013-10-05 23:30:00,53.0,34.4,30.19,North,0,0.0,0.0,49,0.00,,,0.00,VWS V14.01,2013-10-06 06:30:00,